Date String (YYYY-MM-DD hh:mm:ss) UTC,Instrument flags,absolute air pressure of the measurement (hPa),sample flow rate (lpm),inlet stack bypass flow (lpm),air temperature of the measurement (°C),ambient temperature measured by the external sensor (°C),aerosol sample conditioner tube jacket temperature (°C),OPC LED temperature (°C),internal box temperature (°C),relative humidity of the measurement (%),span deviation,mass concentration of particles derived from Lorenz-Mie calculation of OPC scattering (μg/m³),mass concentration of particles derived from Lorenz-Mie calculation of OPC scattering (μg/m³),mass concentration of particles derived from Lorenz-Mie calculation of OPC scattering (μg/m³)
DateTimeUTC,F1_M11,P_M11,Q1_M11,Q2_M11,T1_M11,T2_M11,T3_M11,T4_M11,T5_M11,U1_M11,ZSPAN_M11,X0_M11,X2_M11,X1_M11
2023-08-16 13:00:00,SystemResetWarning,0833.5,4.98,000.00,029.6,027.3,000.0,038.0,031.1,19.3,0000.0,0009.82,0004.16,0003.69
2023-08-16 13:01:00,SystemResetWarning,0833.5,5.01,000.00,029.6,025.5,000.0,037.8,030.8,19.2,0000.0,0009.78,0004.14,0003.69
2023-08-16 13:02:00,SystemResetWarning,0833.5,5.01,000.00,029.5,025.2,000.0,037.8,030.7,19.2,0000.0,0009.79,0004.15,0003.68
2023-08-16 13:03:00,SystemResetWarning,0833.5,5.00,000.00,029.4,025.5,000.0,037.8,030.6,19.4,0000.0,0009.58,0004.16,0003.68
2023-08-16 13:04:00,SystemResetWarning,0833.6,5.00,000.00,029.3,025.9,000.0,037.8,030.6,19.4,0000.0,0008.62,0004.12,0003.67
2023-08-16 13:05:00,SystemResetWarning,0833.7,5.00,000.00,029.3,026.3,000.0,037.8,030.7,19.7,0000.0,0008.43,0004.10,0003.66
2023-08-16 13:06:00,SystemResetWarning,0833.7,5.00,000.00,029.3,026.7,000.0,037.9,030.8,19.7,0000.0,0008.48,0004.10,0003.65
2023-08-16 13:07:00,SystemResetWarning,0833.6,5.01,000.00,029.3,027.0,000.0,037.9,030.8,19.5,0000.0,0008.43,0004.10,0003.63
2023-08-16 13:08:00,SystemResetWarning,0833.6,5.00,000.00,029.3,027.3,000.0,037.9,030.9,19.5,0000.0,0008.08,0004.07,0003.62
2023-08-16 13:09:00,SystemResetWarning,0833.6,4.99,000.00,029.3,027.5,000.0,037.9,031.0,19.5,0000.0,0007.61,0004.05,0003.62
2023-08-16 13:10:00,SystemResetWarning,0833.7,5.00,000.00,029.4,027.7,000.0,037.9,031.0,19.6,0000.0,0007.41,0004.03,0003.61
2023-08-16 13:11:00,SystemResetWarning,0833.6,5.00,000.00,029.4,027.9,000.0,037.9,031.1,19.4,0000.0,0007.82,0004.05,0003.62
2023-08-16 13:12:00,SystemResetWarning,0833.6,5.00,000.00,029.4,028.0,000.0,037.9,031.1,19.1,0000.0,0008.13,0004.06,0003.62
2023-08-16 13:13:00,SystemResetWarning,0833.6,5.01,000.00,029.5,028.2,000.0,037.9,031.2,19.3,0000.0,0008.29,0004.05,0003.64
2023-08-16 13:14:00,SystemResetWarning,0833.7,5.00,000.00,029.5,028.3,000.0,038.0,031.2,19.4,0000.0,0008.38,0004.07,0003.64
2023-08-16 13:15:00,SystemResetWarning,0833.7,5.00,000.00,029.5,028.4,000.0,038.0,031.3,19.4,0000.0,0008.31,0004.10,0003.66
2023-08-16 13:16:00,SystemResetWarning,0833.6,5.00,000.00,029.6,028.4,000.0,038.0,031.3,19.5,0000.0,0008.34,0004.17,0003.68
2023-08-16 13:17:00,SystemResetWarning,0833.7,4.99,000.00,029.6,028.5,000.0,038.0,031.3,19.6,0000.0,0008.73,0004.22,0003.70
2023-08-16 13:18:00,SystemResetWarning,0833.7,5.00,000.00,029.6,028.6,000.0,038.1,031.3,19.6,0000.0,0008.97,0004.21,0003.72
2023-08-16 13:19:00,SystemResetWarning,0833.6,4.99,000.00,029.7,027.7,000.0,038.0,031.2,19.8,0000.0,0008.94,0004.22,0003.74
2023-08-16 13:20:00,SystemResetWarning,0833.6,5.00,000.00,029.6,025.8,000.0,037.9,030.8,20.2,0000.0,0008.96,0004.24,0003.75
2023-08-16 13:21:00,SystemResetWarning,0833.5,5.02,000.00,029.5,025.3,000.0,037.8,030.7,20.8,0000.0,0008.98,0004.23,0003.75
2023-08-16 13:22:00,SystemResetWarning,0833.5,4.99,000.00,029.4,025.6,000.0,037.8,030.6,20.6,0000.0,0009.33,0004.23,0003.75
2023-08-16 13:23:00,SystemResetWarning,0833.6,4.99,000.00,029.3,026.0,000.0,037.8,030.6,20.5,0000.0,0008.94,0004.23,0003.75
2023-08-16 13:24:00,SystemResetWarning,0833.6,5.00,000.00,029.3,026.4,000.0,037.8,030.7,20.6,0000.0,0008.83,0004.22,0003.74
2023-08-16 13:25:00,SystemResetWarning,0833.7,5.01,000.00,029.3,026.7,000.0,037.9,030.8,21.7,0000.0,0008.67,0004.20,0003.74
2023-08-16 13:26:00,SystemResetWarning,0833.6,4.99,000.00,029.3,027.1,000.0,037.9,030.9,21.7,0000.0,0008.56,0004.16,0003.74
2023-08-16 13:27:00,SystemResetWarning,0833.6,4.99,000.00,029.4,027.3,000.0,037.9,031.0,21.6,0000.0,0008.48,0004.13,0003.73
2023-08-16 13:28:00,SystemResetWarning,0833.6,5.00,000.00,029.4,027.6,000.0,037.9,031.0,21.1,0000.0,0008.96,0004.11,0003.72
2023-08-16 13:29:00,SystemResetWarning,0833.7,5.00,000.00,029.4,027.8,000.0,037.9,031.1,20.9,0000.0,0008.76,0004.11,0003.72
2023-08-16 13:30:00,SystemResetWarning,0833.7,5.00,000.00,029.4,027.9,000.0,037.9,031.1,20.4,0000.0,0008.73,0004.10,0003.73
2023-08-16 13:31:00,SystemResetWarning,0833.7,5.01,000.00,029.5,028.1,000.0,037.9,031.2,20.1,0000.0,0008.77,0004.11,0003.73
2023-08-16 13:32:00,SystemResetWarning,0833.7,5.00,000.00,029.5,028.2,000.0,038.0,031.2,20.3,0000.0,0008.82,0004.17,0003.74
2023-08-16 13:33:00,SystemResetWarning,0833.7,5.00,000.00,029.5,028.3,000.0,038.0,031.3,20.6,0000.0,0008.18,0004.19,0003.75
2023-08-16 13:34:00,SystemResetWarning,0833.7,5.01,000.00,029.6,028.4,000.0,038.0,031.3,20.7,0000.0,0008.19,0004.19,0003.76
2023-08-16 13:35:00,SystemResetWarning,0833.7,4.98,000.00,029.6,027.7,000.0,037.9,031.2,20.7,0000.0,0008.22,0004.19,0003.76
2023-08-16 13:36:00,SystemResetWarning,0833.7,5.00,000.00,029.5,025.8,000.0,037.8,030.8,20.7,0000.0,0008.31,0004.19,0003.77
2023-08-16 13:37:00,SystemResetWarning,0833.7,5.01,000.00,029.4,025.4,000.0,037.7,030.7,20.9,0000.0,0008.29,0004.18,0003.77
2023-08-16 13:38:00,SystemResetWarning,0833.7,5.01,000.00,029.4,025.7,000.0,037.7,030.6,21.2,0000.0,0008.29,0004.15,0003.77
2023-08-16 13:39:00,SystemResetWarning,0833.7,4.99,000.00,029.3,026.0,000.0,037.8,030.6,21.7,0000.0,0007.51,0004.17,0003.78
2023-08-16 13:40:00,SystemResetWarning,0833.7,4.99,000.00,029.3,026.4,000.0,037.8,030.7,21.8,0000.0,0007.42,0004.20,0003.78
2023-08-16 13:41:00,SystemResetWarning,0833.7,5.01,000.00,029.3,026.8,000.0,037.8,030.8,22.3,0000.0,0008.28,0004.22,0003.77
2023-08-16 13:42:00,SystemResetWarning,0833.7,5.01,000.00,029.3,027.1,000.0,037.8,030.9,22.2,0000.0,0008.71,0004.22,0003.76
2023-08-16 13:43:00,SystemResetWarning,0833.7,4.99,000.00,029.3,027.4,000.0,037.8,030.9,21.5,0000.0,0008.66,0004.19,0003.74
2023-08-16 13:44:00,SystemResetWarning,0833.7,4.99,000.00,029.3,027.6,000.0,037.9,031.0,21.3,0000.0,0008.62,0004.17,0003.74
2023-08-16 13:45:00,SystemResetWarning,0833.8,5.00,000.00,029.4,027.8,000.0,037.9,031.1,21.2,0000.0,0008.68,0004.17,0003.73
2023-08-16 13:46:00,SystemResetWarning,0833.8,5.00,000.00,029.4,028.0,000.0,037.9,031.1,21.3,0000.0,0008.59,0004.16,0003.73
2023-08-16 13:47:00,SystemResetWarning,0833.8,5.00,000.00,029.4,028.1,000.0,037.9,031.1,20.9,0000.0,0008.52,0004.19,0003.73
2023-08-16 13:48:00,SystemResetWarning,0833.8,5.01,000.00,029.5,028.2,000.0,037.9,031.2,21.5,0000.0,0009.30,0004.21,0003.72
2023-08-16 13:49:00,SystemResetWarning,0833.8,4.99,000.00,029.5,028.3,000.0,038.0,031.3,21.1,0000.0,0009.96,0004.25,0003.72
2023-08-16 13:50:00,SystemResetWarning,0833.8,4.98,000.00,029.5,027.6,000.0,037.9,031.1,21.2,0000.0,0010.52,0004.22,0003.71
2023-08-16 13:51:00,SystemResetWarning,0833.8,5.00,000.00,029.5,025.8,000.0,037.7,030.7,21.5,0000.0,0010.70,0004.21,0003.71
2023-08-16 13:52:00,SystemResetWarning,0833.8,5.00,000.00,029.4,025.5,000.0,037.7,030.6,22.0,0000.0,0010.12,0004.21,0003.72
2023-08-16 13:53:00,SystemResetWarning,0833.7,5.01,000.00,029.3,025.8,000.0,037.7,030.6,22.2,0000.0,0009.53,0004.19,0003.72
2023-08-16 13:54:00,SystemResetWarning,0833.7,5.01,000.00,029.3,026.1,000.0,037.7,030.6,22.1,0000.0,0009.60,0004.21,0003.72
2023-08-16 13:55:00,SystemResetWarning,0833.8,5.00,000.00,029.3,026.5,000.0,037.8,030.7,21.4,0000.0,0009.65,0004.19,0003.72
2023-08-16 13:56:00,SystemResetWarning,0833.8,4.99,000.00,029.3,026.9,000.0,037.8,030.8,21.2,0000.0,0009.61,0004.18,0003.72
2023-08-16 13:57:00,SystemResetWarning,0833.8,4.99,000.00,029.3,027.2,000.0,037.8,030.9,21.4,0000.0,0009.60,0004.19,0003.72
2023-08-16 13:58:00,SystemResetWarning,0833.8,5.00,000.00,029.3,027.4,000.0,037.8,030.9,21.9,0000.0,0009.60,0004.18,0003.73
2023-08-16 13:59:00,SystemResetWarning,0833.8,5.01,000.00,029.3,027.7,000.0,037.8,031.0,21.8,0000.0,0009.06,0004.17,0003.74
